Year,Month,Day,Hour,Minute,Value (Times are PST for windspeed in km/hr)
2014,07,02,00,00,0.60
2014,07,02,00,01,1.10
2014,07,02,00,02,2.10
2014,07,02,00,03,1.10
2014,07,02,00,04,1.40
2014,07,02,00,05,2.60
2014,07,02,00,06,2.00
2014,07,02,00,07,2.00
2014,07,02,00,08,1.40
2014,07,02,00,09,0.20
2014,07,02,00,10,0.90
2014,07,02,00,11,0.10
2014,07,02,00,12,0.40
2014,07,02,00,13,0.20
2014,07,02,00,14,0.20
2014,07,02,00,15,1.90
2014,07,02,00,16,0.30
2014,07,02,00,17,0.20
2014,07,02,00,18,2.70
2014,07,02,00,19,1.70
2014,07,02,00,20,0.30
2014,07,02,00,21,1.00
2014,07,02,00,22,1.30
2014,07,02,00,23,0.00
2014,07,02,00,24,0.00
2014,07,02,00,25,0.80
2014,07,02,00,26,0.00
2014,07,02,00,27,0.10
2014,07,02,00,28,0.00
2014,07,02,00,29,0.00
2014,07,02,00,30,0.00
2014,07,02,00,31,0.00
2014,07,02,00,32,0.30
2014,07,02,00,33,0.70
2014,07,02,00,34,0.00
2014,07,02,00,35,0.10
2014,07,02,00,36,0.00
2014,07,02,00,37,0.00
2014,07,02,00,38,0.20
2014,07,02,00,39,0.40
2014,07,02,00,40,0.30
2014,07,02,00,41,0.00
2014,07,02,00,42,0.00
2014,07,02,00,43,0.00
2014,07,02,00,44,0.00
2014,07,02,00,45,0.00
2014,07,02,00,46,0.60
2014,07,02,00,47,0.80
2014,07,02,00,48,0.00
2014,07,02,00,49,0.30
2014,07,02,00,50,0.60
2014,07,02,00,51,0.00
2014,07,02,00,52,0.00
2014,07,02,00,53,0.00
2014,07,02,00,54,0.00
2014,07,02,00,55,0.00
2014,07,02,00,56,0.30
2014,07,02,00,57,0.00
2014,07,02,00,58,0.00
2014,07,02,00,59,0.10
2014,07,02,01,00,0.00
2014,07,02,01,01,0.00
2014,07,02,01,02,0.10
2014,07,02,01,03,0.10
2014,07,02,01,04,0.00
2014,07,02,01,05,0.10
2014,07,02,01,06,0.00
2014,07,02,01,07,0.00
2014,07,02,01,08,0.00
2014,07,02,01,09,0.70
2014,07,02,01,10,0.20
2014,07,02,01,11,0.10
2014,07,02,01,12,0.20
2014,07,02,01,13,0.60
2014,07,02,01,14,0.60
2014,07,02,01,15,0.00
2014,07,02,01,16,0.20
2014,07,02,01,17,4.70
2014,07,02,01,18,1.60
2014,07,02,01,19,0.10
2014,07,02,01,20,0.00
2014,07,02,01,21,0.40
2014,07,02,01,22,0.10
2014,07,02,01,23,0.00
2014,07,02,01,24,0.00
2014,07,02,01,25,0.00
2014,07,02,01,26,0.00
2014,07,02,01,27,0.20
2014,07,02,01,28,0.70
2014,07,02,01,29,0.10
2014,07,02,01,30,0.10
2014,07,02,01,31,0.10
2014,07,02,01,32,0.10
2014,07,02,01,33,0.00
2014,07,02,01,34,0.00
2014,07,02,01,35,0.00
2014,07,02,01,36,0.10
2014,07,02,01,37,0.60
2014,07,02,01,38,1.10
2014,07,02,01,39,1.00
2014,07,02,01,40,0.70
2014,07,02,01,41,0.00
2014,07,02,01,42,0.80
2014,07,02,01,43,2.30
2014,07,02,01,44,2.10
2014,07,02,01,45,0.10
2014,07,02,01,46,0.00
2014,07,02,01,47,2.20
2014,07,02,01,48,0.20
2014,07,02,01,49,0.00
2014,07,02,01,50,0.30
2014,07,02,01,51,2.70
2014,07,02,01,52,2.40
2014,07,02,01,53,0.30
2014,07,02,01,54,0.20
2014,07,02,01,55,0.60
2014,07,02,01,56,0.00
2014,07,02,01,57,0.50
2014,07,02,01,58,0.30
2014,07,02,01,59,0.10
2014,07,02,02,00,0.00
2014,07,02,02,01,0.00
2014,07,02,02,02,0.00
2014,07,02,02,03,0.00
2014,07,02,02,04,0.00
2014,07,02,02,05,0.00
2014,07,02,02,06,0.00
2014,07,02,02,07,0.00
2014,07,02,02,08,0.00
2014,07,02,02,09,0.10
2014,07,02,02,10,0.00
2014,07,02,02,11,0.80
2014,07,02,02,12,0.00
2014,07,02,02,13,0.90
2014,07,02,02,14,0.50
2014,07,02,02,15,1.00
2014,07,02,02,16,2.20
2014,07,02,02,17,0.20
2014,07,02,02,18,0.00
2014,07,02,02,19,0.10
2014,07,02,02,20,0.10
2014,07,02,02,21,0.00
2014,07,02,02,22,0.00
2014,07,02,02,23,0.00
2014,07,02,02,24,0.20
2014,07,02,02,25,0.10
2014,07,02,02,26,0.00
2014,07,02,02,27,0.00
2014,07,02,02,28,0.00
2014,07,02,02,29,0.00
2014,07,02,02,30,0.00
2014,07,02,02,31,0.00
2014,07,02,02,32,0.10
2014,07,02,02,33,0.00
2014,07,02,02,34,0.10
2014,07,02,02,35,0.00
2014,07,02,02,36,0.10
2014,07,02,02,37,0.00
2014,07,02,02,38,0.00
2014,07,02,02,39,0.50
2014,07,02,02,40,0.20
2014,07,02,02,41,0.80
2014,07,02,02,42,0.40
2014,07,02,02,43,0.20
2014,07,02,02,44,0.80
2014,07,02,02,45,1.50
2014,07,02,02,46,0.80
2014,07,02,02,47,0.30
2014,07,02,02,48,0.20
2014,07,02,02,49,0.40
2014,07,02,02,50,0.30
2014,07,02,02,51,0.10
2014,07,02,02,52,0.00
2014,07,02,02,53,0.00
2014,07,02,02,54,0.00
2014,07,02,02,55,0.10
2014,07,02,02,56,0.20
2014,07,02,02,57,0.20
2014,07,02,02,58,0.00
2014,07,02,02,59,0.30
2014,07,02,03,00,0.00
2014,07,02,03,01,0.60
2014,07,02,03,02,0.40
2014,07,02,03,03,0.00
2014,07,02,03,04,0.00
2014,07,02,03,05,0.00
2014,07,02,03,06,0.10
2014,07,02,03,07,0.20
2014,07,02,03,08,0.10
2014,07,02,03,09,0.00
2014,07,02,03,10,0.00
2014,07,02,03,11,0.00
2014,07,02,03,12,0.00
2014,07,02,03,13,0.00
2014,07,02,03,14,0.10
2014,07,02,03,15,0.30
2014,07,02,03,16,0.30
2014,07,02,03,17,0.10
2014,07,02,03,18,0.10
2014,07,02,03,19,0.00
2014,07,02,03,20,0.10
2014,07,02,03,21,0.00
2014,07,02,03,22,0.60
2014,07,02,03,23,0.00
2014,07,02,03,24,0.00
2014,07,02,03,25,0.10
2014,07,02,03,26,0.60
2014,07,02,03,27,0.00
2014,07,02,03,28,0.10
2014,07,02,03,29,0.00
2014,07,02,03,30,0.60
2014,07,02,03,31,0.00
2014,07,02,03,32,0.10
2014,07,02,03,33,0.30
2014,07,02,03,34,0.20
2014,07,02,03,35,0.20
2014,07,02,03,36,0.00
2014,07,02,03,37,0.00
2014,07,02,03,38,1.90
2014,07,02,03,39,0.60
2014,07,02,03,40,0.40
2014,07,02,03,41,0.00
2014,07,02,03,42,0.60
2014,07,02,03,43,0.80
2014,07,02,03,44,3.40
2014,07,02,03,45,1.30
2014,07,02,03,46,1.10
2014,07,02,03,47,0.60
2014,07,02,03,48,1.10
2014,07,02,03,49,2.10
2014,07,02,03,50,0.70
2014,07,02,03,51,1.90
2014,07,02,03,52,3.30
2014,07,02,03,53,1.00
2014,07,02,03,54,2.50
2014,07,02,03,55,0.70
2014,07,02,03,56,0.00
2014,07,02,03,57,1.90
2014,07,02,03,58,0.20
2014,07,02,03,59,0.30
2014,07,02,04,00,0.60
2014,07,02,04,01,1.10
2014,07,02,04,02,0.40
2014,07,02,04,03,0.20
2014,07,02,04,04,0.00
2014,07,02,04,05,0.00
2014,07,02,04,06,0.00
2014,07,02,04,07,0.00
2014,07,02,04,08,0.70
2014,07,02,04,09,0.00
2014,07,02,04,10,0.00
2014,07,02,04,11,0.30
2014,07,02,04,12,0.00
2014,07,02,04,13,0.00
2014,07,02,04,14,0.00
2014,07,02,04,15,0.00
2014,07,02,04,16,0.20
2014,07,02,04,17,0.30
2014,07,02,04,18,0.50
2014,07,02,04,19,0.30
2014,07,02,04,20,0.60
2014,07,02,04,21,0.40
2014,07,02,04,22,0.30
2014,07,02,04,23,3.40
2014,07,02,04,24,0.10
2014,07,02,04,25,0.20
2014,07,02,04,26,0.20
2014,07,02,04,27,0.60
2014,07,02,04,28,0.40
2014,07,02,04,29,0.40
2014,07,02,04,30,0.40
2014,07,02,04,31,1.10
2014,07,02,04,32,1.20
2014,07,02,04,33,0.50
2014,07,02,04,34,0.70
2014,07,02,04,35,2.00
2014,07,02,04,36,1.50
2014,07,02,04,37,1.10
2014,07,02,04,38,1.50
2014,07,02,04,39,0.50
2014,07,02,04,40,1.50
2014,07,02,04,41,3.20
2014,07,02,04,42,1.10
2014,07,02,04,43,0.10
2014,07,02,04,44,1.70
2014,07,02,04,45,0.30
2014,07,02,04,46,1.10
2014,07,02,04,47,3.20
2014,07,02,04,48,0.50
2014,07,02,04,49,1.50
2014,07,02,04,50,0.80
2014,07,02,04,51,2.70
2014,07,02,04,52,1.60
2014,07,02,04,53,2.00
2014,07,02,04,54,2.10
2014,07,02,04,55,1.80
2014,07,02,04,56,0.40
2014,07,02,04,57,0.00
2014,07,02,04,58,2.20
2014,07,02,04,59,3.60
2014,07,02,05,00,3.80
2014,07,02,05,01,1.60
2014,07,02,05,02,1.40
2014,07,02,05,03,3.00
2014,07,02,05,04,2.30
2014,07,02,05,05,2.00
2014,07,02,05,06,4.00
2014,07,02,05,07,2.00
2014,07,02,05,08,0.80
2014,07,02,05,09,1.80
2014,07,02,05,10,0.30
2014,07,02,05,11,1.50
2014,07,02,05,12,1.10
2014,07,02,05,13,1.50
2014,07,02,05,14,3.00
2014,07,02,05,15,2.40
2014,07,02,05,16,0.20
2014,07,02,05,17,0.60
2014,07,02,05,18,0.00
2014,07,02,05,19,1.80
2014,07,02,05,20,2.90
2014,07,02,05,21,0.40
2014,07,02,05,22,0.10
2014,07,02,05,23,0.10
2014,07,02,05,24,0.00
2014,07,02,05,25,0.50
2014,07,02,05,26,0.90
2014,07,02,05,27,2.40
2014,07,02,05,28,3.90
2014,07,02,05,29,0.10
2014,07,02,05,30,2.70
2014,07,02,05,31,1.40
2014,07,02,05,32,4.30
2014,07,02,05,33,2.60
2014,07,02,05,34,3.00
2014,07,02,05,35,2.70
2014,07,02,05,36,3.80
2014,07,02,05,37,7.00
2014,07,02,05,38,2.80
2014,07,02,05,39,3.40
2014,07,02,05,40,1.50
2014,07,02,05,41,4.80
2014,07,02,05,42,3.50
2014,07,02,05,43,3.50
2014,07,02,05,44,1.70
2014,07,02,05,45,5.70
2014,07,02,05,46,4.30
2014,07,02,05,47,3.10
2014,07,02,05,48,1.90
2014,07,02,05,49,0.60
2014,07,02,05,50,2.00
2014,07,02,05,51,2.10
2014,07,02,05,52,2.20
2014,07,02,05,53,1.00
2014,07,02,05,54,0.90
2014,07,02,05,55,3.10
2014,07,02,05,56,6.50
2014,07,02,05,57,4.30
2014,07,02,05,58,1.00
2014,07,02,05,59,3.40
2014,07,02,06,00,3.10
2014,07,02,06,01,4.40
2014,07,02,06,02,3.10
2014,07,02,06,03,1.90
2014,07,02,06,04,2.80
2014,07,02,06,05,3.40
2014,07,02,06,06,2.20
2014,07,02,06,07,1.10
2014,07,02,06,08,3.40
2014,07,02,06,09,1.90
2014,07,02,06,10,4.90
2014,07,02,06,11,3.70
2014,07,02,06,12,0.80
2014,07,02,06,13,4.30
2014,07,02,06,14,3.90
2014,07,02,06,15,4.30
2014,07,02,06,16,2.90
2014,07,02,06,17,5.20
2014,07,02,06,18,3.70
2014,07,02,06,19,0.80
2014,07,02,06,20,0.90
2014,07,02,06,21,0.50
2014,07,02,06,22,1.50
2014,07,02,06,23,1.40
2014,07,02,06,24,1.20
2014,07,02,06,25,0.70
2014,07,02,06,26,1.20
2014,07,02,06,27,0.80
2014,07,02,06,28,1.90
2014,07,02,06,29,1.20
2014,07,02,06,30,2.80
2014,07,02,06,31,1.40
2014,07,02,06,32,0.10
2014,07,02,06,33,1.20
2014,07,02,06,34,2.40
2014,07,02,06,35,2.80
2014,07,02,06,36,2.00
2014,07,02,06,37,2.80
2014,07,02,06,38,1.90
2014,07,02,06,39,2.50
2014,07,02,06,40,2.10
2014,07,02,06,41,2.20
2014,07,02,06,42,2.90
2014,07,02,06,43,0.60
2014,07,02,06,44,0.10
2014,07,02,06,45,2.80
2014,07,02,06,46,1.20
2014,07,02,06,47,4.20
2014,07,02,06,48,5.20
2014,07,02,06,49,4.70
2014,07,02,06,50,2.00
2014,07,02,06,51,0.50
2014,07,02,06,52,4.90
2014,07,02,06,53,0.20
2014,07,02,06,54,2.20
2014,07,02,06,55,4.80
2014,07,02,06,56,7.00
2014,07,02,06,57,1.90
2014,07,02,06,58,1.40
2014,07,02,06,59,3.00
2014,07,02,07,00,5.00
2014,07,02,07,01,0.90
2014,07,02,07,02,4.50
2014,07,02,07,03,1.10
2014,07,02,07,04,2.20
2014,07,02,07,05,4.00
2014,07,02,07,06,1.30
2014,07,02,07,07,4.10
2014,07,02,07,08,2.30
2014,07,02,07,09,2.40
2014,07,02,07,10,2.70
2014,07,02,07,11,1.90
2014,07,02,07,12,1.50
2014,07,02,07,13,1.60
2014,07,02,07,14,2.70
2014,07,02,07,15,1.70
2014,07,02,07,16,1.80
2014,07,02,07,17,8.10
2014,07,02,07,18,3.40
2014,07,02,07,19,3.30
2014,07,02,07,20,0.70
2014,07,02,07,21,1.40
2014,07,02,07,22,1.80
2014,07,02,07,23,2.80
2014,07,02,07,24,2.70
2014,07,02,07,25,4.10
2014,07,02,07,26,2.40
2014,07,02,07,27,2.30
2014,07,02,07,28,3.30
2014,07,02,07,29,1.90
2014,07,02,07,30,3.50
2014,07,02,07,31,3.00
2014,07,02,07,32,2.40
2014,07,02,07,33,3.70
2014,07,02,07,34,4.00
2014,07,02,07,35,3.50
2014,07,02,07,36,3.30
2014,07,02,07,37,1.40
2014,07,02,07,38,3.10
2014,07,02,07,39,5.10
2014,07,02,07,40,6.80
2014,07,02,07,41,3.20
2014,07,02,07,42,7.40
2014,07,02,07,43,3.70
2014,07,02,07,44,3.50
2014,07,02,07,45,1.50
2014,07,02,07,46,6.10
2014,07,02,07,47,4.20
2014,07,02,07,48,4.30
2014,07,02,07,49,2.20
2014,07,02,07,50,2.80
2014,07,02,07,51,9.40
2014,07,02,07,52,6.60
2014,07,02,07,53,2.60
2014,07,02,07,54,5.60
2014,07,02,07,55,2.50
2014,07,02,07,56,3.50
2014,07,02,07,57,4.30
2014,07,02,07,58,2.50
2014,07,02,07,59,3.10
2014,07,02,08,00,5.10
2014,07,02,08,01,3.70
2014,07,02,08,02,3.00
2014,07,02,08,03,1.30
2014,07,02,08,04,1.60
2014,07,02,08,05,0.10
2014,07,02,08,06,2.80
2014,07,02,08,07,3.10
2014,07,02,08,08,1.10
2014,07,02,08,09,1.70
2014,07,02,08,10,0.80
2014,07,02,08,11,1.70
2014,07,02,08,12,2.30
2014,07,02,08,13,1.50
2014,07,02,08,14,2.00
2014,07,02,08,15,6.00
2014,07,02,08,16,3.80
2014,07,02,08,17,6.00
2014,07,02,08,18,2.10
2014,07,02,08,19,4.90
2014,07,02,08,20,3.70
2014,07,02,08,21,4.60
2014,07,02,08,22,2.70
2014,07,02,08,23,3.50
2014,07,02,08,24,2.90
2014,07,02,08,25,2.60
2014,07,02,08,26,3.50
2014,07,02,08,27,3.80
2014,07,02,08,28,2.70
2014,07,02,08,29,1.30
2014,07,02,08,30,0.80
2014,07,02,08,31,1.40
2014,07,02,08,32,0.70
2014,07,02,08,33,0.60
2014,07,02,08,34,2.10
2014,07,02,08,35,2.30
2014,07,02,08,36,2.10
2014,07,02,08,37,1.70
2014,07,02,08,38,1.80
2014,07,02,08,39,1.90
2014,07,02,08,40,2.80
2014,07,02,08,41,2.60
2014,07,02,08,42,1.60
2014,07,02,08,43,4.00
2014,07,02,08,44,2.40
2014,07,02,08,45,2.20
2014,07,02,08,46,2.50
2014,07,02,08,47,5.60
2014,07,02,08,48,0.50
2014,07,02,08,49,1.70
2014,07,02,08,50,1.70
2014,07,02,08,51,3.10
2014,07,02,08,52,2.20
2014,07,02,08,53,2.40
2014,07,02,08,54,2.10
2014,07,02,08,55,2.40
2014,07,02,08,56,2.40
2014,07,02,08,57,2.20
2014,07,02,08,58,1.40
2014,07,02,08,59,2.90
2014,07,02,09,00,2.40
2014,07,02,09,01,1.90
2014,07,02,09,02,2.50
2014,07,02,09,03,0.50
2014,07,02,09,04,3.40
2014,07,02,09,05,4.60
2014,07,02,09,06,2.70
2014,07,02,09,07,1.60
2014,07,02,09,08,3.40
2014,07,02,09,09,3.80
2014,07,02,09,10,3.10
2014,07,02,09,11,4.70
2014,07,02,09,12,1.90
2014,07,02,09,13,3.20
2014,07,02,09,14,4.10
2014,07,02,09,15,2.90
2014,07,02,09,16,2.30
2014,07,02,09,17,3.60
2014,07,02,09,18,4.00
2014,07,02,09,19,4.30
2014,07,02,09,20,2.50
2014,07,02,09,21,3.30
2014,07,02,09,22,5.60
2014,07,02,09,23,3.00
2014,07,02,09,24,3.20
2014,07,02,09,25,3.90
2014,07,02,09,26,5.30
2014,07,02,09,27,2.80
2014,07,02,09,28,3.40
2014,07,02,09,29,3.70
2014,07,02,09,30,3.00
2014,07,02,09,31,3.40
2014,07,02,09,32,3.20
2014,07,02,09,33,3.90
2014,07,02,09,34,3.50
2014,07,02,09,35,3.50
2014,07,02,09,36,2.60
2014,07,02,09,37,2.40
2014,07,02,09,38,2.40
2014,07,02,09,39,2.60
2014,07,02,09,40,2.50
2014,07,02,09,41,4.20
2014,07,02,09,42,2.20
2014,07,02,09,43,3.50
2014,07,02,09,44,2.60
2014,07,02,09,45,4.30
2014,07,02,09,46,4.10
2014,07,02,09,47,3.70
2014,07,02,09,48,2.50
2014,07,02,09,49,2.40
2014,07,02,09,50,3.00
2014,07,02,09,51,1.80
2014,07,02,09,52,4.60
2014,07,02,09,53,4.50
2014,07,02,09,54,2.80
2014,07,02,09,55,2.10
2014,07,02,09,56,1.50
2014,07,02,09,57,3.00
2014,07,02,09,58,2.30
2014,07,02,09,59,3.20
2014,07,02,10,00,2.50
2014,07,02,10,01,3.70
2014,07,02,10,02,2.10
2014,07,02,10,03,1.60
2014,07,02,10,04,1.60
2014,07,02,10,05,1.20
2014,07,02,10,06,3.40
2014,07,02,10,07,3.00
2014,07,02,10,08,3.40
2014,07,02,10,09,3.10
2014,07,02,10,10,2.60
2014,07,02,10,11,4.40
2014,07,02,10,12,0.70
2014,07,02,10,13,2.60
2014,07,02,10,14,3.90
2014,07,02,10,15,3.30
2014,07,02,10,16,4.50
2014,07,02,10,17,2.50
2014,07,02,10,18,2.60
2014,07,02,10,19,3.70
2014,07,02,10,20,1.80
2014,07,02,10,21,5.00
2014,07,02,10,22,3.40
2014,07,02,10,23,2.70
2014,07,02,10,24,2.50
2014,07,02,10,25,1.80
2014,07,02,10,26,2.20
2014,07,02,10,27,1.50
2014,07,02,10,28,3.50
2014,07,02,10,29,2.10
2014,07,02,10,30,1.00
2014,07,02,10,31,3.50
2014,07,02,10,32,2.20
2014,07,02,10,33,3.10
2014,07,02,10,34,2.90
2014,07,02,10,35,3.80
2014,07,02,10,36,3.50
2014,07,02,10,37,2.80
2014,07,02,10,38,1.30
2014,07,02,10,39,2.50
2014,07,02,10,40,4.10
2014,07,02,10,41,3.40
2014,07,02,10,42,6.10
2014,07,02,10,43,2.50
2014,07,02,10,44,2.20
2014,07,02,10,45,3.60
2014,07,02,10,46,1.90
2014,07,02,10,47,5.80
2014,07,02,10,48,4.40
2014,07,02,10,49,3.50
2014,07,02,10,50,2.60
2014,07,02,10,51,3.10
2014,07,02,10,52,7.60
2014,07,02,10,53,2.70
2014,07,02,10,54,3.60
2014,07,02,10,55,7.10
2014,07,02,10,56,3.10
2014,07,02,10,57,4.10
2014,07,02,10,58,7.30
2014,07,02,10,59,4.90
2014,07,02,11,00,2.00
2014,07,02,11,01,2.50
2014,07,02,11,02,8.80
2014,07,02,11,03,4.10
2014,07,02,11,04,6.20
2014,07,02,11,05,2.40
2014,07,02,11,06,5.70
2014,07,02,11,07,8.00
2014,07,02,11,08,2.60
2014,07,02,11,09,2.30
2014,07,02,11,10,4.10
2014,07,02,11,11,2.90
2014,07,02,11,12,6.50
2014,07,02,11,13,6.80
2014,07,02,11,14,2.70
2014,07,02,11,15,2.70
2014,07,02,11,16,3.80
2014,07,02,11,17,2.90
2014,07,02,11,18,4.40
2014,07,02,11,19,6.40
2014,07,02,11,20,4.30
2014,07,02,11,21,6.00
2014,07,02,11,22,5.60
2014,07,02,11,23,7.10
2014,07,02,11,24,3.70
2014,07,02,11,25,7.50
2014,07,02,11,26,2.70
2014,07,02,11,27,3.00
2014,07,02,11,28,4.40
2014,07,02,11,29,2.80
2014,07,02,11,30,6.20
2014,07,02,11,31,3.60
2014,07,02,11,32,2.20
2014,07,02,11,33,4.60
2014,07,02,11,34,2.20
2014,07,02,11,35,3.00
2014,07,02,11,36,8.50
2014,07,02,11,37,5.20
2014,07,02,11,38,0.80
2014,07,02,11,39,2.10
2014,07,02,11,40,2.20
2014,07,02,11,41,3.90
2014,07,02,11,42,5.70
2014,07,02,11,43,4.20
2014,07,02,11,44,5.20
2014,07,02,11,45,2.80
2014,07,02,11,46,4.60
2014,07,02,11,47,2.30
2014,07,02,11,48,5.20
2014,07,02,11,49,3.10
2014,07,02,11,50,6.00
2014,07,02,11,51,3.70
2014,07,02,11,52,1.80
2014,07,02,11,53,4.50
2014,07,02,11,54,4.30
2014,07,02,11,55,6.50
2014,07,02,11,56,6.00
2014,07,02,11,57,5.10
2014,07,02,11,58,3.50
2014,07,02,11,59,2.10
2014,07,02,12,00,4.60
2014,07,02,12,01,4.40
2014,07,02,12,02,5.80
2014,07,02,12,03,2.30
2014,07,02,12,04,3.50
2014,07,02,12,05,6.50
2014,07,02,12,06,4.70
2014,07,02,12,07,2.30
2014,07,02,12,08,3.80
2014,07,02,12,09,3.10
2014,07,02,12,10,0.70
2014,07,02,12,11,2.30
2014,07,02,12,12,2.40
2014,07,02,12,13,1.50
2014,07,02,12,14,2.60
2014,07,02,12,15,4.00
2014,07,02,12,16,3.30
2014,07,02,12,17,2.70
2014,07,02,12,18,7.10
2014,07,02,12,19,1.50
2014,07,02,12,20,2.80
2014,07,02,12,21,4.90
2014,07,02,12,22,3.30
2014,07,02,12,23,1.60
2014,07,02,12,24,3.50
2014,07,02,12,25,3.00
2014,07,02,12,26,4.30
2014,07,02,12,27,6.20
2014,07,02,12,28,2.80
2014,07,02,12,29,4.40
2014,07,02,12,30,2.20
2014,07,02,12,31,2.60
2014,07,02,12,32,3.20
2014,07,02,12,33,1.70
2014,07,02,12,34,3.80
2014,07,02,12,35,2.30
2014,07,02,12,36,3.60
2014,07,02,12,37,3.50
2014,07,02,12,38,9.00
2014,07,02,12,39,5.60
2014,07,02,12,40,6.40
2014,07,02,12,41,7.00
2014,07,02,12,42,7.50
2014,07,02,12,43,3.40
2014,07,02,12,44,3.40
2014,07,02,12,45,7.20
2014,07,02,12,46,6.30
2014,07,02,12,47,3.60
2014,07,02,12,48,1.20
2014,07,02,12,49,3.50
2014,07,02,12,50,2.00
2014,07,02,12,51,4.80
2014,07,02,12,52,3.70
2014,07,02,12,53,5.00
2014,07,02,12,54,4.50
2014,07,02,12,55,3.30
2014,07,02,12,56,2.10
2014,07,02,12,57,1.50
2014,07,02,12,58,4.80
2014,07,02,12,59,3.90
2014,07,02,13,00,3.00
2014,07,02,13,01,3.70
2014,07,02,13,02,2.80
2014,07,02,13,03,2.50
2014,07,02,13,04,4.70
2014,07,02,13,05,3.20
2014,07,02,13,06,1.70
2014,07,02,13,07,5.50
2014,07,02,13,08,6.80
2014,07,02,13,09,3.60
2014,07,02,13,10,6.10
2014,07,02,13,11,5.50
2014,07,02,13,12,8.10
2014,07,02,13,13,5.10
2014,07,02,13,14,10.90
2014,07,02,13,15,9.40
2014,07,02,13,16,5.60
2014,07,02,13,17,4.80
2014,07,02,13,18,1.50
2014,07,02,13,19,8.40
2014,07,02,13,20,3.60
2014,07,02,13,21,7.50
2014,07,02,13,22,10.70
2014,07,02,13,23,6.50
2014,07,02,13,24,10.40
2014,07,02,13,25,13.00
2014,07,02,13,26,4.10
2014,07,02,13,27,7.20
2014,07,02,13,28,6.40
2014,07,02,13,29,4.10
2014,07,02,13,30,4.40
2014,07,02,13,31,1.60
2014,07,02,13,32,2.70
2014,07,02,13,33,6.20
2014,07,02,13,34,8.10
2014,07,02,13,35,10.70
2014,07,02,13,36,5.90
2014,07,02,13,37,4.50
2014,07,02,13,38,12.20
2014,07,02,13,39,4.50
2014,07,02,13,40,4.80
2014,07,02,13,41,4.20
2014,07,02,13,42,4.10
2014,07,02,13,43,6.30
2014,07,02,13,44,9.00
2014,07,02,13,45,3.20
2014,07,02,13,46,11.80
2014,07,02,13,47,3.10
2014,07,02,13,48,8.30
2014,07,02,13,49,6.10
2014,07,02,13,50,10.60
2014,07,02,13,51,9.00
2014,07,02,13,52,7.30
2014,07,02,13,53,8.00
2014,07,02,13,54,13.10
2014,07,02,13,55,5.70
2014,07,02,13,56,1.20
2014,07,02,13,57,6.70
2014,07,02,13,58,5.50
2014,07,02,13,59,11.30
2014,07,02,14,00,11.30
2014,07,02,14,01,7.40
2014,07,02,14,02,3.70
2014,07,02,14,03,3.90
2014,07,02,14,04,5.80
2014,07,02,14,05,3.80
2014,07,02,14,06,6.10
2014,07,02,14,07,5.70
2014,07,02,14,08,4.70
2014,07,02,14,09,3.30
2014,07,02,14,10,6.80
2014,07,02,14,11,6.30
2014,07,02,14,12,7.50
2014,07,02,14,13,5.30
2014,07,02,14,14,8.00
2014,07,02,14,15,7.70
2014,07,02,14,16,10.90
2014,07,02,14,17,5.60
2014,07,02,14,18,3.90
2014,07,02,14,19,4.80
2014,07,02,14,20,10.30
2014,07,02,14,21,7.60
2014,07,02,14,22,7.70
2014,07,02,14,23,5.40
2014,07,02,14,24,5.70
2014,07,02,14,25,10.70
2014,07,02,14,26,7.80
2014,07,02,14,27,5.50
2014,07,02,14,28,7.70
2014,07,02,14,29,18.50
2014,07,02,14,30,10.00
2014,07,02,14,31,7.10
2014,07,02,14,32,6.20
2014,07,02,14,33,3.40
2014,07,02,14,34,8.80
2014,07,02,14,35,10.30
2014,07,02,14,36,10.90
2014,07,02,14,37,9.30
2014,07,02,14,38,7.20
2014,07,02,14,39,7.30
2014,07,02,14,40,6.50
2014,07,02,14,41,3.70
2014,07,02,14,42,11.00
2014,07,02,14,43,6.00
2014,07,02,14,44,3.00
2014,07,02,14,45,4.00
2014,07,02,14,46,10.80
2014,07,02,14,47,7.20
2014,07,02,14,48,10.70
2014,07,02,14,49,6.90
2014,07,02,14,50,8.00
2014,07,02,14,51,9.70
2014,07,02,14,52,12.60
2014,07,02,14,53,8.30
2014,07,02,14,54,6.10
2014,07,02,14,55,6.70
2014,07,02,14,56,19.30
2014,07,02,14,57,14.90
2014,07,02,14,58,8.20
2014,07,02,14,59,3.40
2014,07,02,15,00,4.10
2014,07,02,15,01,5.10
2014,07,02,15,02,5.30
2014,07,02,15,03,4.80
2014,07,02,15,04,11.90
2014,07,02,15,05,8.50
2014,07,02,15,06,17.10
2014,07,02,15,07,6.90
2014,07,02,15,08,7.60
2014,07,02,15,09,7.20
2014,07,02,15,10,8.50
2014,07,02,15,11,7.20
2014,07,02,15,12,8.40
2014,07,02,15,13,15.00
2014,07,02,15,14,12.60
2014,07,02,15,15,11.10
2014,07,02,15,16,8.90
2014,07,02,15,17,6.70
2014,07,02,15,18,7.80
2014,07,02,15,19,12.80
2014,07,02,15,20,8.80
2014,07,02,15,21,5.40
2014,07,02,15,22,9.70
2014,07,02,15,23,8.90
2014,07,02,15,24,9.00
2014,07,02,15,25,3.10
2014,07,02,15,26,7.80
2014,07,02,15,27,8.80
2014,07,02,15,28,7.80
2014,07,02,15,29,12.70
2014,07,02,15,30,8.70
2014,07,02,15,31,8.10
2014,07,02,15,32,13.90
2014,07,02,15,33,10.10
2014,07,02,15,34,9.20
2014,07,02,15,35,10.40
2014,07,02,15,36,16.90
2014,07,02,15,37,8.10
2014,07,02,15,38,6.10
2014,07,02,15,39,13.60
2014,07,02,15,40,4.20
2014,07,02,15,41,4.40
2014,07,02,15,42,5.40
2014,07,02,15,43,9.40
2014,07,02,15,44,9.00
2014,07,02,15,45,5.80
2014,07,02,15,46,9.40
2014,07,02,15,47,4.30
2014,07,02,15,48,3.30
2014,07,02,15,49,5.50
2014,07,02,15,50,6.30
2014,07,02,15,51,4.20
2014,07,02,15,52,1.70
2014,07,02,15,53,2.70
2014,07,02,15,54,8.00
2014,07,02,15,55,5.20
2014,07,02,15,56,4.30
2014,07,02,15,57,3.90
2014,07,02,15,58,4.70
2014,07,02,15,59,9.70
2014,07,02,16,00,13.30
2014,07,02,16,01,5.50
2014,07,02,16,02,8.60
2014,07,02,16,03,3.50
2014,07,02,16,04,1.50
2014,07,02,16,05,1.90
2014,07,02,16,06,2.00
2014,07,02,16,07,6.20
2014,07,02,16,08,9.20
2014,07,02,16,09,3.50
2014,07,02,16,10,4.10
2014,07,02,16,11,3.10
2014,07,02,16,12,2.60
2014,07,02,16,13,9.00
2014,07,02,16,14,8.70
2014,07,02,16,15,4.40
2014,07,02,16,16,2.10
2014,07,02,16,17,3.40
2014,07,02,16,18,2.00
2014,07,02,16,19,5.90
2014,07,02,16,20,6.40
2014,07,02,16,21,1.80
2014,07,02,16,22,5.40
2014,07,02,16,23,7.00
2014,07,02,16,24,10.40
2014,07,02,16,25,3.50
2014,07,02,16,26,10.70
2014,07,02,16,27,4.40
2014,07,02,16,28,2.00
2014,07,02,16,29,5.70
2014,07,02,16,30,4.70
2014,07,02,16,31,2.10
2014,07,02,16,32,6.40
2014,07,02,16,33,8.60
2014,07,02,16,34,4.30
2014,07,02,16,35,6.90
2014,07,02,16,36,8.00
2014,07,02,16,37,3.00
2014,07,02,16,38,4.70
2014,07,02,16,39,5.10
2014,07,02,16,40,11.30
2014,07,02,16,41,7.40
2014,07,02,16,42,3.00
2014,07,02,16,43,3.50
2014,07,02,16,44,7.10
2014,07,02,16,45,6.50
2014,07,02,16,46,4.40
2014,07,02,16,47,2.50
2014,07,02,16,48,13.60
2014,07,02,16,49,4.30
2014,07,02,16,50,1.00
2014,07,02,16,51,3.80
2014,07,02,16,52,4.50
2014,07,02,16,53,2.30
2014,07,02,16,54,5.10
2014,07,02,16,55,3.00
2014,07,02,16,56,2.90
2014,07,02,16,57,3.60
2014,07,02,16,58,6.20
2014,07,02,16,59,2.50
2014,07,02,17,00,5.60
2014,07,02,17,01,1.00
2014,07,02,17,02,4.00
2014,07,02,17,03,5.60
2014,07,02,17,04,3.00
2014,07,02,17,05,3.30
2014,07,02,17,06,2.50
2014,07,02,17,07,3.00
2014,07,02,17,08,1.80
2014,07,02,17,09,6.40
2014,07,02,17,10,8.70
2014,07,02,17,11,2.70
2014,07,02,17,12,2.10
2014,07,02,17,13,3.90
2014,07,02,17,14,1.80
2014,07,02,17,15,5.90
2014,07,02,17,16,5.10
2014,07,02,17,17,1.80
2014,07,02,17,18,3.90
2014,07,02,17,19,2.50
2014,07,02,17,20,0.90
2014,07,02,17,21,3.50
2014,07,02,17,22,4.70
2014,07,02,17,23,3.10
2014,07,02,17,24,2.00
2014,07,02,17,25,1.20
2014,07,02,17,26,2.00
2014,07,02,17,27,1.20
2014,07,02,17,28,5.60
2014,07,02,17,29,1.80
2014,07,02,17,30,3.30
2014,07,02,17,31,3.40
2014,07,02,17,32,1.00
2014,07,02,17,33,2.50
2014,07,02,17,34,5.70
2014,07,02,17,35,6.00
2014,07,02,17,36,2.70
2014,07,02,17,37,1.40
2014,07,02,17,38,1.00
2014,07,02,17,39,5.10
2014,07,02,17,40,4.60
2014,07,02,17,41,5.80
2014,07,02,17,42,2.70
2014,07,02,17,43,4.60
2014,07,02,17,44,6.00
2014,07,02,17,45,3.80
2014,07,02,17,46,6.10
2014,07,02,17,47,3.30
2014,07,02,17,48,8.00
2014,07,02,17,49,6.20
2014,07,02,17,50,4.70
2014,07,02,17,51,3.50
2014,07,02,17,52,6.00
2014,07,02,17,53,7.50
2014,07,02,17,54,7.30
2014,07,02,17,55,4.70
2014,07,02,17,56,4.10
2014,07,02,17,57,5.40
2014,07,02,17,58,3.90
2014,07,02,17,59,8.10
2014,07,02,18,00,5.80
2014,07,02,18,01,6.10
2014,07,02,18,02,8.10
2014,07,02,18,03,2.50
2014,07,02,18,04,5.00